Home   Weather   Midway   Past weeks

Flag for US Minor Outlying Islands Past Weather in Midway, US Minor Outlying Islands — Yesterday and Last 2 Weeks

Now
70 °F

Mostly cloudy.


Feels Like: 70 °F
Forecast: 67 / 73 °F
Wind: 6 mph from Northwest

Location: Midway Island Naval Air Facility

Current Time: Jan 18, 2017 at 7:22:03 am

Latest Report: Jan 18, 2017 at 6:37 am


Visibility: 10 mi

Pressure: 29.94 "Hg

Humidity: 83%

Dew Point: 64 °F

Location of MidwayLocation

Past Weather in Midway — Graph

°F

Midway Temperature Yesterday

Maximum temperature yesterday: 75 °F (at 3:36 pm)
Minimum temperature yesterday: 66 °F (at 10:56 pm)
Average temperature yesterday: 71 °F

High & Low Weather Summary for the Past Weeks

 TemperatureHumidityPressure
High77 °F (Jan 14, 1:25 pm)100% (Jan 7, 4:16 pm)30.11 "Hg (Jan 7, 4:16 pm)
Low61 °F (Jan 9, 7:56 am)49% (Jan 9, 10:56 am)29.44 "Hg (Jan 10, 4:14 pm)
Average71 °F81%29.82 "Hg
* Reported Jan 3 5:56 am — Jan 18 5:56 am, Midway, Weather by CustomWeather, © 2017

Note: Actual official high and low records may vary slightly from our data, if they occured in-between our weather recording intervals... More about our weather records

Advertising

Midway Weather History for the Previous 24 Hours

Scroll right to see more
 ConditionsComfort  
Time TempWeatherWind HumidityBarometerVisibility
5:56 am
Wed, Jan 18
69 °FOvercast.7 mph87%29.92 "Hg10 mi
4:56 am68 °FLight rain. Mostly cloudy.12 mph93%29.90 "Hg7 mi
4:25 am68 °FLight rain. Mostly cloudy.13 mph94%29.90 "Hg10 mi
3:56 am69 °FRain. Fog.15 mph93%29.90 "Hg3 mi
3:37 am70 °FLight rain. Fog.15 mph88%29.90 "Hg3 mi
2:56 am69 °FLight rain. Mostly cloudy.18 mph90%29.90 "Hg8 mi
2:17 am70 °FOvercast.18 mph88%29.90 "Hg10 mi
1:56 am69 °FMostly cloudy.20 mph90%29.90 "Hg10 mi
12:56 am68 °FLight rain. Fog.16 mph93%29.90 "Hg6 mi
11:56 pm
Tue, Jan 17
66 °FLight rain. Fog.18 mph96%29.90 "Hg5 mi
11:03 pm66 °FHeavy rain. Fog.18 mph100%29.90 "Hg3 mi
10:56 pm66 °FLight rain. Fog.18 mph96%29.90 "Hg2 mi
9:56 pm74 °FMostly cloudy.23 mph94%29.86 "Hg7 mi
8:56 pm74 °FOvercast.22 mph94%29.85 "Hg7 mi
7:56 pm74 °FOvercast.20 mph94%29.85 "Hg8 mi
7:14 pm73 °FLow clouds.17 mph94%29.84 "Hg8 mi
6:37 pm73 °FLight rain. Fog.18 mph94%29.84 "Hg3 mi
5:56 pm73 °FLow clouds.20 mph94%29.83 "Hg7 mi
4:56 pm74 °FOvercast.22 mph88%29.83 "Hg9 mi
4:33 pm73 °FOvercast.22 mph89%29.82 "Hg10 mi
3:56 pm75 °FCloudy.20 mph82%29.83 "Hg9 mi
3:36 pm75 °FMostly cloudy.16 mph83%29.84 "Hg7 mi
2:56 pm75 °FMostly cloudy.15 mph82%29.86 "Hg8 mi
1:56 pm75 °FOvercast.13 mph79%29.89 "Hg8 mi
12:56 pm75 °FMore clouds than sun.13 mph79%29.93 "Hg8 mi
11:56 am74 °FMostly cloudy.14 mph82%29.97 "Hg7 mi
10:56 am73 °FOvercast.15 mph81%30.00 "Hg7 mi
9:56 am72 °FOvercast.9 mph78%30.02 "Hg9 mi
8:56 am71 °FOvercast.6 mph76%30.01 "Hg7 mi
7:56 am70 °FMostly cloudy.7 mph73%30.01 "Hg9 mi
Weather by CustomWeather, © 2017

See weather overviewHow to use our weather pages